TimeEST,TemperatureF,Dew PointF,Humidity,Sea Level PressureIn,VisibilityMPH,Wind Direction,Wind SpeedMPH,Gust SpeedMPH,PrecipitationIn,Events,Conditions,WindDirDegrees,DateUTC
12:53 AM,61.0,50.0,67,30.17,10.0,North,8.1,-,N/A,,Clear,10,2013-03-08 05:53:00
1:53 AM,60.1,48.0,64,30.16,10.0,North,8.1,-,N/A,,Clear,10,2013-03-08 06:53:00
2:53 AM,60.1,48.0,64,30.14,10.0,North,6.9,-,N/A,,Clear,10,2013-03-08 07:53:00
3:53 AM,60.1,48.9,67,30.13,10.0,North,8.1,-,N/A,,Clear,360,2013-03-08 08:53:00
4:53 AM,59.0,48.9,69,30.14,10.0,North,6.9,-,N/A,,Clear,10,2013-03-08 09:53:00
5:53 AM,59.0,48.9,69,30.15,10.0,North,9.2,-,N/A,,Clear,10,2013-03-08 10:53:00
6:53 AM,59.0,50.0,72,30.16,10.0,NNE,6.9,-,N/A,,Clear,20,2013-03-08 11:53:00
7:53 AM,62.1,51.1,67,30.18,10.0,NNE,10.4,-,N/A,,Clear,30,2013-03-08 12:53:00
8:53 AM,64.0,51.1,63,30.19,10.0,NE,11.5,-,N/A,,Clear,40,2013-03-08 13:53:00
9:53 AM,64.9,51.1,61,30.20,10.0,NNE,10.4,-,N/A,,Clear,30,2013-03-08 14:53:00
10:53 AM,66.9,51.1,57,30.20,10.0,NNE,10.4,-,N/A,,Clear,30,2013-03-08 15:53:00
11:53 AM,68.0,51.1,55,30.18,10.0,NE,10.4,-,N/A,,Clear,40,2013-03-08 16:53:00
12:19 PM,69.8,50.0,49,30.17,10.0,NE,8.1,-,N/A,,Partly Cloudy,40,2013-03-08 17:19:00
12:53 PM,73.0,53.1,49,30.16,10.0,North,6.9,-,N/A,,Clear,360,2013-03-08 17:53:00
1:53 PM,73.0,53.1,49,30.14,10.0,Variable,5.8,-,N/A,,Clear,0,2013-03-08 18:53:00
2:53 PM,73.0,54.0,51,30.14,10.0,Variable,3.5,-,N/A,,Clear,0,2013-03-08 19:53:00
3:53 PM,73.0,54.0,51,30.12,10.0,NNE,6.9,-,N/A,,Clear,30,2013-03-08 20:53:00
4:53 PM,70.0,55.0,59,30.12,10.0,NNW,5.8,-,N/A,,Clear,340,2013-03-08 21:53:00
5:53 PM,68.0,55.9,65,30.14,10.0,NNW,5.8,-,N/A,,Clear,340,2013-03-08 22:53:00
6:53 PM,66.9,55.9,68,30.14,10.0,NW,3.5,-,N/A,,Clear,320,2013-03-08 23:53:00
7:53 PM,66.0,57.0,73,30.16,10.0,North,3.5,-,N/A,,Clear,350,2013-03-09 00:53:00
8:53 PM,66.0,57.0,73,30.17,10.0,NNW,4.6,-,N/A,,Clear,340,2013-03-09 01:53:00
9:53 PM,66.0,57.0,73,30.17,10.0,North,4.6,-,N/A,,Clear,350,2013-03-09 02:53:00
10:53 PM,66.0,59.0,78,30.17,10.0,North,4.6,-,N/A,,Clear,360,2013-03-09 03:53:00
11:53 PM,64.9,59.0,81,30.16,10.0,North,6.9,-,N/A,,Clear,10,2013-03-09 04:53:00